DW0809 Weather Reports


Display with metric or nautical units.
time (UTC)temp
F
wind
direction
speed
MPH
gust
MPH
rain 1hr
in
rain 24hr
in
rain mn
in
humidity
%
barometer
mb
20260902081516 78 158 1.0 3.0 0.00 0.00 0.00 69 1014.0
20260902080517 78 158 2.0 4.0 0.00 0.00 0.00 67 1013.8
20260902075516 79 158 2.0 6.0 0.00 0.00 0.00 67 1013.8
20260902074516 79 158 3.0 7.0 0.00 0.00 0.00 65 1013.7
20260902073536 79 158 3.0 6.0 0.00 0.00 0.00 65 1013.7
20260902072516 79 180 2.0 7.0 0.00 0.00 0.00 65 1013.7
20260902071537 79 158 2.0 4.0 0.00 0.00 0.00 66 1013.7
20260902070537 79 180 2.0 5.0 0.00 0.00 0.00 66 1013.7
20260902065536 79 180 3.0 6.0 0.00 0.00 0.00 66 1013.7
20260902064516 79 158 3.0 7.0 0.00 0.00 0.00 66 1013.7
20260902063517 79 158 3.0 6.0 0.00 0.00 0.00 67 1013.6
20260902062516 80 180 2.0 7.0 0.00 0.00 0.00 66 1013.4
20260902061516 80 158 2.0 4.0 0.00 0.00 0.00 66 1013.5
20260902060516 80 158 3.0 6.0 0.00 0.00 0.00 65 1013.3
20260902055537 80 158 3.0 8.0 0.00 0.00 0.00 65 1013.2
20260902054536 81 158 3.0 7.0 0.00 0.00 0.00 65 1013.2
20260902053536 81 158 3.0 5.0 0.00 0.00 0.00 65 1013.3
20260902052516 81 158 3.0 5.0 0.00 0.00 0.00 65 1013.4
20260902051516 81 158 3.0 7.0 0.00 0.00 0.00 65 1013.4
20260902050516 81 158 2.0 5.0 0.00 0.00 0.00 65 1013.5
20260902045517 82 158 2.0 5.0 0.00 0.00 0.00 65 1013.4
20260902044517 82 158 3.0 6.0 0.00 0.00 0.00 65 1013.4
20260902043517 82 158 2.0 4.0 0.00 0.00 0.00 66 1013.4
20260902042517 82 158 2.0 4.0 0.00 0.00 0.00 66 1013.3
20260902041516 83 158 2.0 4.0 0.00 0.00 0.00 66 1013.4
20260902040537 83 158 2.0 5.0 0.00 0.00 0.00 65 1013.5
20260902035517 83 158 1.0 3.0 0.00 0.00 0.00 65 1013.5
20260902034517 84 158 1.0 3.0 0.00 0.00 0.00 65 1013.4
20260902033516 84 158 2.0 5.0 0.00 0.00 0.00 65 1013.4
20260902032516 84 158 2.0 4.0 0.00 0.00 0.00 64 1013.3
20260902031516 85 180 2.0 5.0 0.00 0.00 0.00 65 1013.3
20260902030517 85 180 2.0 5.0 0.00 0.00 0.00 65 1013.1
20260902025557 85 180 2.0 5.0 0.00 0.00 0.00 65 1013.0
20260902024517 86 158 2.0 5.0 0.00 0.00 0.00 64 1013.0
20260902023517 86 158 1.0 3.0 0.00 0.00 0.00 63 1012.9
20260902022517 87 158 2.0 4.0 0.00 0.00 0.00 62 1012.7
20260902021516 87 158 1.0 3.0 0.00 0.00 0.00 62 1012.6
20260902020516 87 158 1.0 3.0 0.00 0.00 0.00 61 1012.5
20260902015517 88 158 1.0 3.0 0.00 0.00 0.00 60 1012.2
20260902014536 88 158 1.0 3.0 0.00 0.00 0.00 59 1012.2
20260902013537 88 158 1.0 3.0 0.00 0.00 0.00 59 1012.0
20260902012517 89 158 2.0 4.0 0.00 0.00 0.00 58 1011.8
20260902011517 89 158 2.0 5.0 0.00 0.00 0.00 58 1011.8
20260902010516 90 158 2.0 6.0 0.00 0.00 0.00 57 1011.8
20260902005516 90 158 2.0 5.0 0.00 0.00 0.00 57 1011.7
20260902004516 91 158 2.0 4.0 0.00 0.00 0.00 56 1011.9
20260902003516 92 158 2.0 7.0 0.00 0.00 0.00 56 1011.8
20260902002536 92 158 2.0 4.0 0.00 0.00 0.00 55 1011.8
20260902001537 93 158 2.0 5.0 0.00 0.00 0.00 53 1011.9
20260902000516 94 158 2.0 4.0 0.00 0.00 0.00 53 1012.1
20260901235516 94 158 2.0 7.0 0.00 0.00 0.00 51 1012.1
20260901234516 95 158 2.0 7.0 0.00 0.00 0.00 52 1012.2
20260901233516 95 158 2.0 6.0 0.00 0.00 0.00 50 1012.4
20260901232516 96 203 2.0 4.0 0.00 0.00 0.00 49 1012.4
20260901231516 96 203 3.0 5.0 0.00 0.00 0.00 48 1012.4
20260901230536 96 203 3.0 6.0 0.00 0.00 0.00 47 1012.4
20260901225516 96 158 3.0 7.0 0.00 0.00 0.00 47 1012.6
20260901224516 96 158 4.0 8.0 0.00 0.00 0.00 48 1012.6
20260901223516 96 203 3.0 8.0 0.00 0.00 0.00 48 1012.6
20260901222516 96 203 3.0 8.0 0.00 0.00 0.00 47 1012.6
20260901221536 96 203 4.0 12.0 0.00 0.00 0.00 46 1012.6
20260901220516 96 203 4.0 8.0 0.00 0.00 0.00 47 1012.9
20260901215516 96 203 4.0 8.0 0.00 0.00 0.00 47 1013.0
20260901214516 96 203 4.0 11.0 0.00 0.00 0.00 48 1013.0
20260901213536 96 203 4.0 9.0 0.00 0.00 0.00 50 1013.0
20260901212516 96 203 4.0 11.0 0.00 0.00 0.00 49 1013.1
20260901211516 95 203 4.0 5.0 0.00 0.00 0.00 50 1013.1
20260901210516 95 158 5.0 10.0 0.00 0.00 0.00 51 1013.2
20260901205516 95 158 4.0 10.0 0.00 0.00 0.00 52 1013.2
20260901204516 95 180 4.0 9.0 0.00 0.00 0.00 51 1013.4
20260901203516 95 203 4.0 12.0 0.00 0.00 0.00 53 1013.6
20260901202536 95 158 5.0 11.0 0.00 0.00 0.00 52 1013.6
20260901201516 95 203 4.0 7.0 0.00 0.00 0.00 52 1013.7
20260901200516 94 158 4.0 7.0 0.00 0.00 0.00 52 1013.9
20260901195536 94 158 4.0 11.0 0.00 0.00 0.00 52 1014.0
20260901194516 94 180 3.0 6.0 0.00 0.00 0.00 53 1014.0
20260901193516 94 203 3.0 7.0 0.00 0.00 0.00 52 1014.2
20260901192516 94 180 3.0 6.0 0.00 0.00 0.00 54 1014.4
20260901191516 94 158 3.0 8.0 0.00 0.00 0.00 53 1014.5
20260901190516 93 158 3.0 7.0 0.00 0.00 0.00 53 1014.4
20260901185516 92 158 4.0 10.0 0.00 0.00 0.00 54 1014.4
20260901184516 92 158 2.0 7.0 0.00 0.00 0.00 54 1014.5
20260901183516 93 158 3.0 8.0 0.00 0.00 0.00 51 1014.6
20260901182516 92 158 2.0 6.0 0.00 0.00 0.00 55 1014.7
20260901181516 91 225 2.0 7.0 0.00 0.00 0.00 56 1014.8
20260901180516 90 158 3.0 5.0 0.00 0.00 0.00 55 1014.9
20260901172516 89 158 2.0 6.0 0.00 0.00 0.00 57 1015.3
20260901171516 89 203 2.0 5.0 0.00 0.00 0.00 56 1015.3
20260901170516 89 158 2.0 6.0 0.00 0.00 0.00 57 1015.4
20260901165516 89 113 2.0 4.0 0.00 0.00 0.00 57 1015.5
20260901164516 88 158 2.0 7.0 0.00 0.00 0.00 59 1015.5
20260901163517 87 203 2.0 5.0 0.00 0.00 0.00 60 1015.5
20260901162516 86 158 2.0 4.0 0.00 0.00 0.00 60 1015.6
20260901161536 86 203 2.0 6.0 0.00 0.00 0.00 62 1015.7
20260901160515 85 225 2.0 3.0 0.00 0.00 0.00 62 1015.6
20260901155516 85 225 2.0 5.0 0.00 0.00 0.00 63 1015.5
20260901154537 84 135 1.0 3.0 0.00 0.00 0.00 67 1015.5
20260901153516 83 180 1.0 3.0 0.00 0.00 0.00 67 1015.4
20260901152515 83 203 2.0 4.0 0.00 0.00 0.00 66 1015.4
20260901151515 83 158 2.0 4.0 0.00 0.00 0.00 66 1015.3
20260901150516 82 203 1.0 3.0 0.00 0.00 0.00 67 1015.3
20260901145515 82 203 2.0 5.0 0.00 0.00 0.00 68 1015.4
20260901144515 81 158 2.0 5.0 0.00 0.00 0.00 67 1015.3
20260901143535 81 158 2.0 5.0 0.00 0.00 0.00 66 1015.4
20260901142536 81 158 2.0 6.0 0.00 0.00 0.00 67 1015.6
20260901141515 81 158 2.0 5.0 0.00 0.00 0.00 69 1015.6
20260901140515 80 158 1.0 3.0 0.00 0.00 0.00 71 1015.6
20260901135515 80 158 1.0 2.0 0.00 0.00 0.00 72 1015.7
20260901134516 79 158 1.0 3.0 0.00 0.00 0.00 74 1015.8
20260901133516 79 158 1.0 4.0 0.00 0.00 0.00 76 1015.6
20260901132515 78 158 1.0 3.0 0.00 0.00 0.00 81 1015.8
20260901131517 76 158 1.0 2.0 0.00 0.00 0.00 85 1015.7
20260901130517 75 0.0 2.0 0.00 0.00 0.00 88 1015.6
20260901125517 75 0.0 1.0 0.00 0.00 0.00 89 1015.6
20260901124517 75 0.0 1.0 0.00 0.00 0.00 89 1015.4
20260901123517 74 0.0 1.0 0.00 0.00 0.00 89 1015.3
20260901122559 74 0.0 1.0 0.00 0.00 0.00 89 1015.3
20260901121517 74 0.0 1.0 0.00 0.00 0.00 89 1015.1
20260901120517 74 0.0 1.0 0.00 0.00 0.00 89 1015.1
20260901115517 74 0.0 0.0 0.00 0.00 0.00 89 1015.0
20260901114517 75 0.0 1.0 0.00 0.00 0.00 89 1015.0
20260901113517 75 0.0 0.0 0.00 0.00 0.00 89 1015.0
20260901112537 75 0.0 1.0 0.00 0.00 0.00 90 1015.0
20260901111517 75 0.0 1.0 0.00 0.00 0.00 89 1015.0
20260901110557 75 0.0 1.0 0.00 0.00 0.00 89 1015.0
20260901105517 75 158 1.0 1.0 0.00 0.00 0.00 89 1014.9
20260901104517 76 0.0 1.0 0.00 0.00 0.00 89 1015.1
20260901103517 76 0.0 1.0 0.00 0.00 0.00 89 1015.2
20260901102517 76 0.0 0.0 0.00 0.00 0.00 89 1015.2
20260901101537 76 0.0 0.0 0.00 0.00 0.00 88 1015.2
20260901100517 76 0.0 0.0 0.00 0.00 0.00 88 1015.3
20260901095517 77 0.0 1.0 0.00 0.00 0.00 89 1015.3
20260901094517 76 158 1.0 2.0 0.00 0.00 0.00 89 1015.3
20260901093517 76 0.0 1.0 0.00 0.00 0.00 90 1015.3
20260901092517 77 0.0 1.0 0.00 0.00 0.00 90 1015.3
20260901091518 77 0.0 1.0 0.00 0.00 0.00 90 1015.4
20260901090557 77 0.0 0.0 0.00 0.00 0.00 90 1015.4
20260901085537 76 0.0 0.0 0.00 0.00 0.00 90 1015.3
20260901084517 76 0.0 0.0 0.00 0.00 0.00 91 1015.2
20260901083517 76 0.0 0.0 0.00 0.00 0.00 90 1015.1
20260901082517 76 0.0 0.0 0.00 0.00 0.00 90 1015.1